This demonstration page uses our WeatherBlox Daily Observations layout. Learn more.

Hourly Observations for January 26, 2020

Temp ( °F °C ) Dew Point ( °F °C ) Humidity (%) Winds ( mph kmh ) Pressure ( in mb ) Visibility ( mi km ) Precip ( " mm )
12:46 am 00:46 Cloudy with Mist and Fog 32 0 29 -1.7 88 88 SW 7 11 30.06 1018 6 9.65604 0 0
12:54 am 00:54 Cloudy with Mist and Fog 32 0 30 -1.1 92 92 SSW 6 9 30.03 1017 6 9.65604 0 0
1:54 am 01:54 Cloudy with Mist and Fog 32 0 30 -1.1 92 92 SSW 5 7 30.02 1017 5 8.0467 0 0
2:45 am 02:45 Cloudy with Mist and Fog 32 0 30 -1.1 92 92 WSW 6 9 30.05 1018 2.5 4.02335 0 0
2:54 am 02:54 Cloudy with Mist and Fog 32 0 30 -1.1 92 92 W 6 9 30.03 1017 2 3.21868 0 0
3:19 am 03:19 Cloudy with Mist and Fog 32 0 30 -1.1 92 92 W 8 13 30.05 1018 3 4.82802 0 0
3:40 am 03:40 Cloudy with Mist and Fog 31 -0.6 30 -1.1 96 96 W 5 7 30.05 1018 2.5 4.02335 0 0
3:54 am 03:54 Cloudy with Mist and Fog 31 -0.6 30 -1.1 96 96 NW 3 6 30.01 1016 2 3.21868 0 0
4:03 am 04:03 Cloudy with Mist and Fog 31 -0.6 30 -1.1 96 96 WNW 3 6 30.04 1017 1.25 2.011675 0 0
4:17 am 04:17 Mostly Cloudy with Freezing Fog 31 -0.6 29 -1.7 92 92 Calm 30.04 1017 0.5 0.80467 0 0
4:28 am 04:28 Mostly Cloudy with Freezing Fog 30 -1.1 29 -1.7 96 96 Calm 30.04 1017 0.25 0.402335 0 0
4:54 am 04:54 Mostly Cloudy with Freezing Fog 29 -1.7 27 -2.8 92 92 W 3 6 30.01 1016 0.25 0.402335 0 0
5:07 am 05:07 Mostly Cloudy with Freezing Fog 28 -2.2 27 -2.8 96 96 Calm 30.04 1017 0.25 0.402335 0 0
5:24 am 05:24 Mostly Cloudy with Freezing Fog 27 -2.8 25 -3.9 92 92 Calm 30.04 1017 0.25 0.402335 0 0
5:41 am 05:41 Mostly Cloudy with Freezing Fog 25 -3.9 24 -4.4 96 96 Calm 30.05 1018 0.25 0.402335 0 0
5:54 am 05:54 Mostly Cloudy with Freezing Fog 26 -3.3 24 -4.4 92 92 Calm 30.01 1016 0.25 0.402335 0 0
6:09 am 06:09 Mostly Cloudy with Freezing Fog 26 -3.3 24 -4.4 92 92 Calm 30.06 1018 0.25 0.402335 0 0
6:47 am 06:47 Mostly Cloudy with Freezing Fog 22 -5.6 20 -6.7 92 92 Calm 30.08 1019 0.5 0.80467 0 0
6:54 am 06:54 Mostly Cloudy with Mist and Fog 22 -5.6 20 -6.7 92 92 Calm 30.03 1017 0.75 1.207005 0 0
7:11 am 07:11 Partly Cloudy with Mist and Fog 21 -6.1 19 -7.2 92 92 Calm 30.08 1019 1.5 2.41401 0 0
7:20 am 07:20 Mostly Cloudy with Mist and Fog 23 -5 20 -6.7 88 88 SW 3 6 30.08 1019 1.5 2.41401 0 0
7:36 am 07:36 Partly Cloudy with Mist and Fog 23 -5 21 -6.1 92 92 WSW 3 6 30.08 1019 3 4.82802 0 0
7:47 am 07:47 Partly Cloudy with Mist and Fog 22 -5.6 20 -6.7 92 92 Calm 30.09 1019 1.75 2.816345 0 0
7:54 am 07:54 Mostly Sunny 23 -5 21 -6.1 92 92 Calm 30.04 1017 10 16.0934 0 0
8:54 am 08:54 Sunny 26 -3.3 25 -3.9 96 96 Calm 30.05 1018 10 16.0934 0 0
9:54 am 09:54 Sunny 30 -1.1 28 -2.2 92 92 SSW 3 6 30.04 1017 10 16.0934 0 0
10:54 am 10:54 Sunny 32 0 28 -2.2 85 85 S 3 6 30.06 1018 10 16.0934 0 0
11:54 am 11:54 Sunny 39 3.9 29 -1.7 67 67 SSW 6 9 30.03 1017 10 16.0934 0 0
12:54 pm 12:54 Sunny 41 5 30 -1.1 65 65 WSW 8 13 30.01 1016 10 16.0934 0 0
1:54 pm 13:54 Sunny 44 6.7 32 0 63 63 WSW 3 6 29.98 1015 10 16.0934 0 0
2:54 pm 14:54 Sunny 44 6.7 32 0 63 63 WSW 8 13 29.97 1015 10 16.0934 0 0
3:54 pm 15:54 Sunny 42 5.6 32 0 68 68 SW 6 9 29.97 1015 10 16.0934 0 0
4:54 pm 16:54 Partly Cloudy 40 4.4 32 0 73 73 SW 6 9 29.98 1015 10 16.0934 0 0
5:54 pm 17:54 Clear 39 3.9 31 -0.6 73 73 SW 5 7 29.98 1015 10 16.0934 0 0
6:54 pm 18:54 Clear 38 3.3 31 -0.6 76 76 NW 5 7 29.98 1015 10 16.0934 0 0
7:54 pm 19:54 Clear 34 1.1 29 -1.7 82 82 SW 3 6 30 1016 10 16.0934 0 0
8:54 pm 20:54 Clear 30 -1.1 27 -2.8 88 88 WNW 3 6 30.01 1016 10 16.0934 0 0
9:54 pm 21:54 Clear 29 -1.7 26 -3.3 89 89 Calm 30.02 1017 10 16.0934 0 0
10:54 pm 22:54 Clear 27 -2.8 25 -3.9 92 92 WNW 3 6 30.01 1016 8 12.87472 0 0
11:54 pm 23:54 Clear 27 -2.8 23 -5 85 85 Calm 30.02 1017 9 14.48406 0 0

Powered by AerisWeather